[[{"header":{"parameterUnit":"m.s-1","parameterCategory":1,"la1":30.2991,"la2":30.254,"lo1":-89.0895,"lo2":-89.0444,"dy":0.0017,"dx":0.0017,"nx":28,"ny":28,"refTime":"2025-03-16T21:00:00:Z","depth":0,"parameterNumber":2,"parameterNumberName":"U-component_of_WINDS"},"data":[0,0,0,0,0,0,0,0,0,0,0,0,0,0,0,0,0,0,0,0,0,0,0,0,0,0,0,0,0,0,0,0,0,0,0,0,0,0,0,0,0,0,0,0,0,0,0,0,0,0,0,0,0,0,0,0,0,0,-3.1171,-3.1172,0,-3.1267,-3.1269,-3.127,-3.1276,-3.1275,-3.1274,-3.1272,-3.1369,-3.1373,-3.1376,0,0,0,0,0,0,0,0,0,0,0,0,0,-3.0992,-3.0995,-3.1171,-3.1172,-3.1173,-3.1267,-3.1269,-3.127,-3.1276,-3.1275,-3.1273,-3.1272,-3.1368,-3.1372,-3.1377,0,0,0,0,0,0,0,0,0,0,0,0,0,-3.1077,-3.0996,-3.1171,-3.1188,-3.119,-3.1267,-3.1269,-3.127,-3.1276,-3.1275,-3.1273,-3.1271,-3.1367,-3.1372,-3.1377,-3.1443,0,0,-3.1394,-3.1396,0,0,0,0,0,0,0,0,-3.1072,-3.1083,-3.1184,-3.1187,-3.119,-3.1258,-3.1241,-3.1328,-3.1277,-3.1243,-3.1272,-3.1271,-3.1333,-3.1341,-3.1363,-3.1447,-3.1452,-3.1394,-3.1397,-3.14,-3.1401,0,0,0,0,0,0,0,-3.1066,-3.1079,-3.1209,-3.1185,-3.1189,-3.119,-3.1201,-3.1257,-3.1296,-3.1246,-3.1247,-3.1258,-3.1335,-3.1358,-3.1365,-3.1453,-3.1394,-3.1399,-3.1402,-3.1404,-3.1598,-3.16,0,0,0,0,0,0,-3.1057,-3.1074,-3.1206,-3.1212,-3.1126,-3.1195,-3.1206,-3.1238,-3.1296,-3.1303,-3.126,-3.1258,-3.1349,-3.1359,-3.1369,-3.145,-3.14,-3.1405,-3.1408,-3.1596,-3.1598,-3.16,0,0,0,0,0,0,-3.1053,-3.1069,-3.1202,-3.1143,-3.1161,-3.12,-3.1235,-3.124,-3.1264,-3.1306,-3.1313,-3.1276,-3.1348,-3.1361,-3.1425,-3.1454,-3.1407,-3.1412,-3.1594,-3.1597,-3.1599,-3.1613,0,0,0,0,0,0,-3.1048,-3.1067,-3.1093,-3.1144,-3.1164,-3.1257,-3.1236,-3.1243,-3.1273,-3.1272,-3.1323,-3.133,-3.1348,-3.1417,-3.143,-3.146,-3.1416,-3.1591,-3.1595,-3.1598,-3.161,-3.1616,-3.1621,0,0,0,0,0,-3.1042,-3.1092,-3.1094,-3.111,-3.1196,-3.1258,-3.127,-3.129,-3.1275,-3.1301,-3.1329,-3.1328,-3.1449,-3.1423,-3.1438,-3.147,-3.1589,-3.1594,-3.1598,-3.1608,-3.1615,-3.1621,0,0,0,0,0,0,-3.1041,-3.1099,-3.1102,-3.117,-3.121,-3.1259,-3.1292,-3.1297,-3.134,-3.1338,-3.1361,-3.1372,-3.1435,-3.1459,-3.143,-3.1538,-3.1517,-3.1525,-3.1519,-3.1527,-3.1532,-3.1524,-3.1421,0,0,0,0,0,-3.105,-3.1096,-3.1143,-3.1199,-3.1219,-3.1252,-3.128,-3.1293,-3.1334,-3.1351,-3.1383,-3.1422,-3.1469,-3.1499,-3.1545,-3.1614,-3.1626,-3.1644,-3.1649,-3.1654,-3.1659,-3.1699,-3.1708,-3.1615,-3.1615,-3.1614,0,0,-3.1066,-3.1104,-3.1131,-3.12,-3.1232,-3.1279,-3.1266,-3.1316,-3.1352,-3.1358,-3.142,-3.1446,-3.1492,-3.1559,-3.159,-3.1581,-3.1688,-3.1659,-3.1662,-3.1666,-3.1704,-3.1713,-3.1721,-3.1617,-3.1617,-3.1616,0,0,-3.1121,-3.1154,-3.1205,-3.1238,-3.1287,-3.1309,-3.1321,-3.1371,-3.1389,-3.1452,-3.1458,-3.15,-3.158,-3.1613,-3.164,-3.1711,-3.1712,-3.1725,-3.1753,-3.1791,-3.1798,-3.1805,-3.183,-3.1839,-3.1731,-3.1731,-3.1731,0,-3.1135,-3.1207,-3.123,-3.1281,-3.1311,-3.1321,-3.1372,-3.1403,-3.1464,-3.1485,-3.1474,-3.1576,-3.1608,-3.1683,-3.17,-3.1722,-3.1737,-3.1718,-3.1795,-3.1802,-3.1809,-3.1833,-3.1842,-3.1732,-3.1732,-3.1732,-3.1732,0,-3.1223,-3.1273,-3.1308,-3.1368,-3.1402,-3.1453,-3.1483,-3.1516,-3.1526,-3.155,-3.1615,-3.1654,-3.1707,-3.1727,-3.1736,-3.1804,-3.1797,-3.1791,-3.177,-3.1818,-3.1842,-3.1851,-3.1734,-3.1733,-3.1733,-3.1733,0,0,-3.1278,-3.1352,-3.1364,-3.1392,-3.1448,-3.1487,-3.1539,-3.1593,-3.162,-3.1663,-3.1707,-3.1776,-3.1771,-3.1802,-3.1816,-3.185,-3.1903,-3.1839,-3.1841,-3.185,-3.1981,-3.1984,-3.1995,-3.1905,-3.1907,-3.1909,-3.1977,0,-3.1339,-3.1431,-3.1454,-3.1533,-3.158,-3.1591,-3.1637,-3.1676,-3.17,-3.1743,-3.1769,-3.1818,-3.1808,-3.1827,-3.1861,-3.1889,-3.193,-3.1885,-3.1946,-3.1948,-3.1933,-3.2007,-3.2011,-3.2073,-3.1986,-3.1987,-3.1989,0,-3.1421,-3.1467,-3.1551,-3.1603,-3.1623,-3.1663,-3.1716,-3.1757,-3.1802,-3.1817,-3.1853,-3.1864,-3.1919,-3.1897,-3.1973,-3.1942,-3.1969,-3.1987,-3.199,-3.1996,-3.197,-3.2014,-3.2093,-3.2102,-3.2003,-3.2002,-3.2001,0,-3.1453,-3.1536,-3.1597,-3.1621,-3.1682,-3.1711,-3.1738,-3.1782,-3.1813,-3.1859,-3.1879,-3.193,-3.1958,-3.1998,-3.2023,-3.2005,-3.2097,-3.2077,-3.2111,-3.211,-3.2128,-3.2127,-3.2212,-3.2147,-3.2147,-3.2147,-3.2146,0,-3.1518,-3.1569,-3.1612,-3.165,-3.1708,-3.1734,-3.1791,-3.1818,-3.1857,-3.19,-3.1913,-3.1954,-3.1985,-3.2029,-3.2049,-3.2109,-3.2122,-3.2136,-3.214,-3.2134,-3.2132,-3.2151,-3.2147,-3.2149,-3.2149,-3.2148,-3.2148,0,-3.1562,-3.1594,-3.1661,-3.1715,-3.173,-3.177,-3.1816,-3.1853,-3.1878,-3.1933,-3.1947,-3.1987,-3.204,-3.207,-3.2136,-3.215,-3.2217,-3.222,-3.2202,-3.2204,-3.2236,-3.2232,-3.2336,-3.2351,-3.2276,-3.2277,-3.2277,0,-3.1601,-3.1641,-3.17,-3.173,-3.1758,-3.1806,-3.1839,-3.1867,-3.1901,-3.1957,-3.1987,-3.2042,-3.2087,-3.2172,-3.2206,-3.2258,-3.2261,-3.2294,-3.2269,-3.2262,-3.2261,-3.2259,-3.2263,-3.2298,-3.2299,-3.2299,-3.23,0,-3.1667,-3.1681,-3.1728,-3.1781,-3.182,-3.1863,-3.1905,-3.1929,-3.1965,-3.2002,-3.2057,-3.2092,-3.2161,-3.2215,-3.227,-3.2298,-3.2305,-3.2308,-3.2318,-3.2312,-3.23,-3.2307,-3.2213,-3.2305,-3.2304,-3.2304,-3.2304,-3.2303,-3.171,-3.1746,-3.1794,-3.1846,-3.1881,-3.1921,-3.1959,-3.199,-3.2037,-3.2096,-3.211,-3.2168,-3.2214,-3.2289,-3.2318,-3.2364,-3.2358,-3.2373,-3.2377,-3.238,-3.2381,-3.2293,-3.2374,-3.2374,-3.2374,-3.2374,-3.2374,0,-3.1776,-3.1808,-3.1856,-3.1915,-3.1957,-3.1961,-3.2009,-3.2043,-3.2095,-3.2138,-3.2182,-3.2247,-3.23,-3.2339,-3.2394,-3.2423,-3.2428,-3.2436,-3.2434,-3.244,-3.2384,-3.2369,-3.2432,-3.2432,-3.2432,-3.2432,-3.2432,-3.2432,-3.1815,-3.1877,-3.1897,-3.1977,-3.2009,-3.2067,-3.2094,-3.2131,-3.2165,-3.2237,-3.2281,-3.2307,-3.2349,-3.2407,-3.2456,-3.2466,-3.2485,-3.2494,-3.2504,-3.245,-3.2444,-3.2438,-3.2425,-3.2498,-3.2498,-3.2557,-3.2558,-3.2558]},{"header":{"parameterUnit":"m.s-1","parameterCategory":1,"la1":30.2991,"la2":30.254,"lo1":-89.0895,"lo2":-89.0444,"dy":0.0017,"dx":0.0017,"nx":28,"ny":28,"refTime":"2025-03-16T21:00:00:Z","depth":0,"parameterNumber":3,"parameterNumberName":"V-component_of_WINDS"},"data":[0,0,0,0,0,0,0,0,0,0,0,0,0,0,0,0,0,0,0,0,0,0,0,0,0,0,0,0,0,0,0,0,0,0,0,0,0,0,0,0,0,0,0,0,0,0,0,0,0,0,0,0,0,0,0,0,0,0,2.6994,2.6993,0,2.6911,2.691,2.6909,2.6847,2.6847,2.6846,2.6845,2.6755,2.6753,2.6751,0,0,0,0,0,0,0,0,0,0,0,0,0,2.7097,2.7095,2.6994,2.6993,2.6992,2.6911,2.691,2.6909,2.6847,2.6846,2.6846,2.6845,2.6755,2.6753,2.6751,0,0,0,0,0,0,0,0,0,0,0,0,0,2.7036,2.7095,2.6995,2.6952,2.6947,2.6911,2.691,2.6908,2.6847,2.6846,2.6846,2.6845,2.6756,2.6753,2.675,2.6748,0,0,2.6741,2.674,0,0,0,0,0,0,0,0,2.704,2.7033,2.6959,2.6955,2.695,2.6889,2.6912,2.6854,2.6847,2.6885,2.6845,2.6845,2.6799,2.6793,2.6779,2.6744,2.674,2.6741,2.6739,2.6738,2.6737,0,0,0,0,0,0,0,2.7044,2.7036,2.6961,2.6958,2.6952,2.6936,2.6926,2.6901,2.6847,2.6882,2.6877,2.6868,2.6797,2.6782,2.6776,2.6738,2.6741,2.6739,2.6737,2.6736,2.6698,2.6699,0,0,0,0,0,0,2.7056,2.704,2.6964,2.6959,2.6994,2.6935,2.6924,2.6909,2.6848,2.6838,2.6869,2.6866,2.6787,2.678,2.6773,2.6766,2.6738,2.6735,2.6734,2.6697,2.6698,2.6699,0,0,0,0,0,0,2.7058,2.705,2.6967,2.6998,2.6986,2.6934,2.6917,2.6908,2.6893,2.6838,2.6828,2.6864,2.6786,2.6777,2.6755,2.6762,2.6734,2.6731,2.6696,2.6697,2.6698,2.6753,0,0,0,0,0,0,2.7061,2.7051,2.705,2.6999,2.6985,2.6952,2.6918,2.6907,2.6889,2.6883,2.6831,2.6821,2.6785,2.676,2.6752,2.6758,2.6729,2.6695,2.6697,2.6698,2.675,2.6756,2.6761,0,0,0,0,0,2.7065,2.7068,2.7051,2.7042,2.6983,2.6953,2.6945,2.6905,2.6889,2.6888,2.6853,2.6823,2.6763,2.6758,2.6749,2.6754,2.6695,2.6696,2.6698,2.6748,2.6755,2.6761,0,0,0,0,0,0,2.7119,2.706,2.704,2.7026,2.6996,2.6943,2.6939,2.6913,2.6884,2.688,2.683,2.6819,2.6802,2.6776,2.6771,2.6749,2.6725,2.6725,2.6766,2.6772,2.6777,2.6783,2.6727,0,0,0,0,0,2.713,2.7112,2.706,2.7053,2.7038,2.6992,2.6977,2.6949,2.6914,2.69,2.6863,2.6829,2.6803,2.6786,2.6759,2.6747,2.6734,2.6746,2.6751,2.6755,2.6755,2.6747,2.6752,2.6704,2.6704,2.6704,0,0,2.7151,2.7116,2.7107,2.7063,2.7035,2.7016,2.6981,2.6962,2.6947,2.6896,2.6874,2.6847,2.6805,2.6789,2.6779,2.6766,2.6766,2.6757,2.6761,2.6759,2.6749,2.6754,2.6758,2.6705,2.6705,2.6705,0,0,2.7179,2.7152,2.7143,2.7117,2.7077,2.7046,2.7044,2.6996,2.6976,2.6953,2.6915,2.6896,2.6852,2.6824,2.6804,2.6824,2.6795,2.6817,2.6843,2.6836,2.6839,2.6842,2.6849,2.6852,2.6817,2.6817,2.6818,0,2.7209,2.7181,2.7141,2.7125,2.7106,2.7062,2.7052,2.7028,2.6981,2.6968,2.6955,2.6899,2.6868,2.6844,2.685,2.6835,2.6831,2.6822,2.6842,2.6845,2.6847,2.6853,2.6856,2.682,2.682,2.682,2.6819,0,2.722,2.7201,2.7198,2.7156,2.7137,2.7124,2.7081,2.7066,2.7041,2.7011,2.6989,2.6951,2.6915,2.6908,2.6881,2.6881,2.6874,2.6852,2.6827,2.6855,2.686,2.6862,2.6824,2.6823,2.6822,2.6822,0,0,2.7277,2.7215,2.7215,2.7196,2.7149,2.7133,2.7118,2.7085,2.7074,2.7043,2.7028,2.6993,2.6973,2.6951,2.6921,2.6915,2.6933,2.6894,2.6892,2.6902,2.693,2.6946,2.6949,2.6915,2.6915,2.6915,2.6933,0,2.7298,2.727,2.7235,2.7219,2.72,2.7159,2.7146,2.7116,2.7089,2.7068,2.7037,2.7012,2.6988,2.6975,2.6967,2.6933,2.6938,2.6931,2.6899,2.6898,2.691,2.6951,2.6968,2.6986,2.6935,2.6935,2.6935,0,2.7317,2.7291,2.7274,2.7231,2.7221,2.7211,2.7178,2.7159,2.7124,2.7104,2.7081,2.705,2.7031,2.7011,2.6983,2.698,2.6965,2.6946,2.6946,2.694,2.6918,2.6946,2.6991,2.6994,2.6938,2.6937,2.6937,0,2.7361,2.7321,2.7306,2.729,2.7239,2.7233,2.7211,2.7175,2.7158,2.7129,2.7118,2.7087,2.707,2.7046,2.7007,2.6996,2.6984,2.696,2.6966,2.6967,2.6964,2.6965,2.7007,2.6957,2.6957,2.6957,2.6957,0,2.7386,2.7377,2.7325,2.7315,2.7303,2.7263,2.7252,2.7226,2.7195,2.7179,2.7142,2.7127,2.7077,2.7057,2.7026,2.7008,2.7001,2.6983,2.6975,2.6986,2.6988,2.6974,2.6972,2.6957,2.6957,2.6957,2.6957,0,2.7432,2.7396,2.7377,2.7331,2.732,2.7313,2.7273,2.7262,2.7234,2.7214,2.7207,2.7161,2.7135,2.7095,2.7056,2.7035,2.7022,2.7009,2.7035,2.7029,2.7038,2.7037,2.7071,2.7074,2.7024,2.7024,2.7025,0,2.745,2.7442,2.7397,2.7384,2.7365,2.7345,2.7328,2.7288,2.7272,2.7232,2.7226,2.7197,2.7172,2.7132,2.7094,2.7065,2.705,2.7064,2.7045,2.7057,2.7049,2.705,2.7049,2.7068,2.7069,2.707,2.707,0,2.7486,2.7469,2.7447,2.742,2.7402,2.7378,2.7351,2.7343,2.7297,2.7281,2.7255,2.7236,2.7198,2.7169,2.7135,2.7111,2.7082,2.7077,2.7077,2.7087,2.7102,2.7093,2.7046,2.7076,2.7075,2.7075,2.7074,2.7074,2.7517,2.7509,2.7476,2.7453,2.743,2.7407,2.7395,2.7366,2.7344,2.7311,2.7289,2.7264,2.7229,2.7181,2.7159,2.7138,2.7125,2.7125,2.7125,2.7125,2.7129,2.7107,2.7131,2.7131,2.7131,2.7131,2.7131,0,2.755,2.7528,2.7508,2.7474,2.7456,2.7434,2.7404,2.739,2.737,2.7341,2.7318,2.7288,2.7261,2.7223,2.7193,2.7184,2.717,2.7177,2.7177,2.7171,2.7142,2.7145,2.7189,2.7189,2.7189,2.7189,2.7189,2.7189,2.7565,2.755,2.753,2.7503,2.748,2.7458,2.7443,2.7421,2.7398,2.7367,2.7346,2.7322,2.7289,2.7256,2.7231,2.722,2.721,2.7221,2.7206,2.7179,2.7173,2.7168,2.7171,2.7219,2.7219,2.7237,2.7237,2.7237]}]]